Regional Weather Roundup
Issued by NWS

Home | Current Version | Previous Version | Text Only | Print | Product List | Glossary Off
Versions: 1 2 3 4 5 6 7 8 9 10 11 12 13 14 15 16 17 18 19 20 21 22 23 24 25 26 27 28 29 30 31 32 33 34 35 36 37 38 39 40 41 42 43 44 45 46 47 48 49 50

000
ASUS43 KIND 190809
RWRIN

WEATHER ROUNDUP FOR INDIANA
NATIONAL WEATHER SERVICE INDIANAPOLIS IN
300 AM EST THU JAN 19 2017

NOTE: "FAIR" INDICATES FEW OR NO CLOUDS BELOW 12,000 FEET WITH NO
SIGNIFICANT WEATHER AND/OR OBSTRUCTIONS TO VISIBILITY.

* - STATION DOES NOT REPORT WEATHER SUCH AS PRECIPITATION OR FOG.

+ - STATION NOT QUALITY CONTROLLED BY THE NATIONAL WEATHER SERVICE.
    USE DATA WITH CAUTION...ESPECIALLY DEWPOINT AND RELATIVE
    HUMIDITY OBSERVATIONS.

INZ001>003-010>013-019-020-190900-
NORTHWEST INDIANA

CITY           SKY/WX    TMP DP  RH WIND       PRES   REMARKS
GARY /AIRPORT/ CLOUDY    37  34  87 S5        30.07R
KNOX *+        CLOUDY    34  23  64 S3        30.08S
LA PORTE +     CLOUDY    34  32  93 SW6       30.08S WCI  29
MICHIGAN CITY+ CLOUDY    36  36 100 S6        30.08S
MONTICELLO +   CLOUDY    35  33  92 S5        30.09R WCI  31
RENSSELAER +   CLOUDY    36  36 100 S7        30.08S FOG
VALPARAISO     CLOUDY    36  34  92 S5        30.08R

$$

LMZ046-743>745-190900-
SOUTHERN LAKE MICHIGAN

STATION/POSITION TIME  TEMP    WIND        PRES    WAVE
                       AIR SEA DIR/SP/G            HT
                 (UTC) (F)     (DEG/KT/KT) (MB)    (FT)
BURNS HARBOR     0740   37     190/  9/ 12 1019.0R

$$

INZ004-005-014>016-021>024-190900-
NORTH CENTRAL INDIANA

CITY           SKY/WX    TMP DP  RH WIND       PRES   REMARKS
GOSHEN         CLOUDY    35  30  82 SW10      30.09R WCI  27
LOGANSPORT +   CLOUDY    34  32  93 SW6       30.11R WCI  29
ROCHESTER +    CLOUDY    36  34  93 SW3       30.10S
SOUTH BEND     CLOUDY    34  32  92 SW8       30.09R WCI  27
WARSAW +       CLOUDY    34  28  80 SW8       30.10R WCI  27

$$

INZ006>009-017-018-025>027-190900-
NORTHEAST INDIANA

CITY           SKY/WX    TMP DP  RH WIND       PRES   REMARKS
ANGOLA *+      CLOUDY    34  30  86 W7        30.07R WCI  28
AUBURN +       CLOUDY    34  32  93 SW5       30.10R FOG     WCI  30
FORT WAYNE     CLOUDY    35  32  88 W10       30.11R WCI  27
HUNTINGTON +   CLOUDY    34  33  96 W5        30.11R WCI  30
KENDALLVILLE + CLOUDY    33  32  96 W12       30.09R WCI  24

$$

INZ028-029-035-036-043>045-051>053-190900-
WEST CENTRAL INDIANA

CITY           SKY/WX    TMP DP  RH WIND       PRES   REMARKS
CRAWFORDSVL +  CLOUDY    32  32 100 SE3       30.09R FOG
GREENCASTLE +  MOCLDY    34  34 100 SE3       30.10R FOG
LAFAYETTE      CLOUDY    35  34  96 S3        30.09F
TERRE HAUTE    CLOUDY    36  34  92 SE3       30.10R

$$

INZ030>032-037>040-046>048-054>057-064-065-190900-
CENTRAL INDIANA

CITY           SKY/WX    TMP DP  RH WIND       PRES   REMARKS
CP ATTERBURY + CLOUDY    36  34  93 CALM      30.12R
FISHERS *+     CLOUDY    36  36 100 S3        30.11S
FRANKFORT +    CLOUDY    38  36  93 CALM      30.10S FOG
GREENWOOD *+   CLOUDY    38  36  94 S3        30.11R
INDIANAPOLIS   CLOUDY    36  33  89 S5        30.10S
-EAGLE CREEK   CLOUDY    37  32  82 S5        30.09S
KOKOMO +       CLOUDY    35  33  92 SW6       30.11R WCI  30
MARION +       CLOUDY    36  34  93 SW5       30.11S
MT COMFORT *+  CLOUDY    36  34  93 CALM      30.10S
SHELBYVILLE    CLOUDY    38  34  85 S5        30.10F
ZIONSVILLE +   CLOUDY    35  33  93 S3        30.09F

$$

INZ033-034-041-042-049-050-058-059-190900-
EAST CENTRAL INDIANA

CITY           SKY/WX    TMP DP  RH WIND       PRES   REMARKS
MUNCIE         CLOUDY    37  34  89 SW6       30.10R

$$

INZ060-061-067>069-081>083-085>088-190900-
SOUTHWEST INDIANA

CITY           SKY/WX    TMP DP  RH WIND       PRES   REMARKS
EVANSVILLE     MOCLDY    41  36  82 CALM      30.09S
HUNTINGBURG *+ CLOUDY    40  36  86 E7        30.08F
WASHINGTON +   MOCLDY    37  36  93 E3        30.07F

$$

INZ062-063-066-070>080-084-089>092-190900-
SOUTH CENTRAL AND SOUTHEAST INDIANA

CITY           SKY/WX    TMP DP  RH WIND       PRES   REMARKS
BLOOMINGTON    CLOUDY    35  32  88 E5        30.09S FOG     WCI  31
MADISON *+     CLOUDY    36  34  93 E3        30.12F
NORTH VERNON + CLOUDY   N/A N/A N/A CALM      30.11F
SEYMOUR +      CLOUDY    37  36  93 CALM      30.11S

$$




USA.gov is the U.S. government's official web portal to all federal, state and local government web resources and services.